Location: Chefe Valiua
(16.5342°S, 37.2214°E)
Time: 01:33:07
(UTC+00:00)

Centaur D-1A AC-31 - Pass Details

Date: 19 January 2021
Orbit: 494 x 36445 km, 27.3° (Epoch: 07 March)

Event Time Altitude Azimuth Distance (km) Brightness Sun altitude
Rises 16:48:40 0° 246° (WSW) 3,867 7.6 -9.2°
Reaches altitude 10° 16:52:30 10° 226° (SW) 2,031 5.0 -10.0°
Maximum altitude 16:55:12 19° 176° (S) 1,254 2.9 -10.6°
Drops below altitude 10° 16:57:38 10° 124° (ESE) 1,770 3.1 -11.2°
Enters shadow 16:58:40 - 113° (ESE) 2,214 3.5 -11.4°
